Location: Hackbridge
(51.3833°N, 0.1500°W)
Time: 15:34:21
(UTC+00:00)

SL-4 R/B - Pass Details

Date: 13 October 2019
Orbit: 428 x 667 km, 51.6° (Epoch: 20 November)

Event Time Altitude Azimuth Distance (km) Brightness Sun altitude
Rises 19:05:53 0° 285° (WNW) 2,631 7.2 -18.4°
Reaches altitude 10° 19:08:23 10° 273° (W) 1,697 5.7 -18.8°
Maximum altitude 19:11:35 26° 215° (SW) 965 3.5 -19.3°
Enters shadow 19:12:58 20° 180° (S) 1,115 3.4 -19.5°
